Regional Weather Roundup
Issued by NWS Cleveland, OH

Home | Current Version | Previous Version | Graphics & Text | Print | Product List | Glossary On
Versions: 1 2 3 4 5 6 7 8 9 10 11 12 13 14 15 16 17 18 19 20 21 22 23 24 25 26 27 28 29 30 31 32 33 34 35 36 37 38 39 40 41 42 43 44 45 46 47 48 49 50
000
ASUS41 KCLE 121210
RWRCLE
OHIO REGIONAL WEATHER ROUNDUP
NATIONAL WEATHER SERVICE CLEVELAND, OH
700 AM EST TUE DEC 12 2017

NOTE: "FAIR" INDICATES FEW OR NO CLOUDS BELOW 12,000 FEET WITH NO
SIGNIFICANT WEATHER AND/OR OBSTRUCTIONS TO VISIBILITY.

OHZ001>008-015>018-024>027-034-035-043-044-121300-
   NORTHWEST OHIO

CITY           SKY/WX    TMP DP  RH WIND       PRES   REMARKS
DEFIANCE       MOCLDY    23  11  60 NW13G21   29.86R WCI  11
FINDLAY        CLOUDY    28  17  63 NW22G28   29.80R WCI  14
TOLEDO EXPRESS FLURRIES  25  17  72 NW14      29.81R WCI  13
TOLEDO EXEC    CLOUDY    26  17  68 NW20G28   29.81R WCI  12
LIMA           CLOUDY    27  18  69 NW25G37   29.81R WCI  12
$$

OHZ009>014-019>023-028>033-038-089-121300-
   NORTHEAST OHIO

CITY           SKY/WX    TMP DP  RH WIND       PRES   REMARKS
CLE-HOPKINS    FLURRIES  30  23  75 NW20      29.72R WCI  17
CLE-LAKEFRONT  FLURRIES  31  23  72 NW28G37   29.68R WCI  17
CUY CO. ARPT   LGT SNOW  30  28  93 NW16      29.68  WCI  19
LORAIN-ELYRIA  FLURRIES  28  18  66 NW16G28   29.72R WCI  16
ASHTABULA      LGT SNOW  30  28  92 NW12G22   29.62R FOG     WCI  20
AKRON-CANTON   LGT SNOW  31  27  85 NW12G25   29.65R VSB 1   WCI  22
WOOSTER        LGT SNOW  28  25  88 NW15G28   29.69R FOG     WCI  16
MANSFIELD      CLOUDY    27  24  89 NW16G25   29.72R WCI  15
YOUNGSTOWN     LGT SNOW  30  29  96 W8        29.60R VSB 1   WCI  22
$$

OHZ042-051>053-060>062-070>072-077>081-121300-
  SOUTHWEST OHIO

CITY           SKY/WX    TMP DP  RH WIND       PRES   REMARKS
CINC-COVINGTON LGT SNOW  32  31  96 NW15G23   29.86R FOG     WCI  22
CINC-LUNKEN    CLOUDY    34  30  85 NW8G20    29.89R WCI  27
HAMILTON       FLURRIES  33  30  88 W14G21    29.88R WCI  23
DAYTON         SNOW      28  28 100 NW15G26   29.83R VSB 1/4 WCI  16
WRIGHT-PAT AFB FLURRIES  31  29  93 NW16G25   29.82R WCI  20
DAYTON GENERAL FLURRIES  32  27  81 NW16G28   29.83R WCI  21
WILMINGTON     FLURRIES  31  29  92 NW18G26   29.80R WCI  19
$$

OHZ036-037-039>041-045>050-054>059-063>069-073>076-082>088-121300-
  CENTRAL AND SOUTHEAST OHIO

CITY           SKY/WX    TMP DP  RH WIND       PRES   REMARKS
COLUMBUS       LGT SNOW  32  29  88 NW15G26   29.76R FOG     WCI  22
OSU AIRPORT    LGT SNOW  31  28  89 NW14G24   29.77R FOG     WCI  21
BOLTON FIELD   LGT SNOW  31  29  92 NW12G17   29.78R WCI  22
RICKENBACK AFB LGT SNOW  32  29  89 NW16G22   29.77R WCI  21
NEWARK         CLOUDY    33  28  81 NW16G22   29.73R WCI  23
MARION         NOT AVBL
LANCASTER      CLOUDY    33  30  88 NW8       29.76R WCI  26
ZANESVILLE     LGT SNOW  33  29  85 W9        29.72R FOG     WCI  25
NEW PHILLY     NOT AVBL
$$




USA.gov is the U.S. government's official web portal to all federal, state and local government web resources and services.